Weather History for Oxford, CT

Change the Weather History Date:

Thursday, May 23, 2013

  Actual Average Record
Temperature  
Mean Temperature 66 °F -  
Max Temperature 69 °F 63 °F 82 °F (2004)
Min Temperature 62 °F 46 °F 35 °F (2006)
Growing Degree Days 16 (Base 50)    
Moisture  
Dew Point 62 °F    
Average Humidity 92    
Maximum Humidity 94    
Minimum Humidity 83    
Precipitation  
Precipitation 0.01 in - - ()
Sea Level Pressure  
Sea Level Pressure 29.90 in    
Wind  
Wind Speed 7 mph (SSW)    
Max Wind Speed 14 mph    
Max Gust Speed 24 mph    
Visibility 3 miles    
Events Fog , Rain , Thunderstorm    
Averages and records for this station are not official NWS values.
T = Trace of Precipitation, MM = Missing Value Source: NWS Daily Summary

Daily Weather History Graph

Daily Weather History Graph

Search for Another Location

Airport:

Trip Planner

Search our weather history database for the weather conditions in past years. The results will help you decide how hot, cold, wet, or windy it might be!

Date:

Astronomy

May. 23, 2013 Rise Set
Actual Time 5:26 AM EDT 8:12 PM EDT
Civil Twilight 4:54 AM EDT 8:45 PM EDT
Nautical Twilight 4:13 AM EDT 9:26 PM EDT
Astronomical Twilight 3:26 AM EDT 10:13 PM EDT
Moon 6:41 PM EDT (5/23) 4:10 AM EDT (5/23)
Length of Visible Light 15h 51m
Length of Day
14h 46m
Waxing Gibbous, 97% of the Moon is Illuminated
May 23
Waxing Gibbous
May 25
Full
May 31
Last Quarter
Jun 8
New
Jun 16
First Quarter

Hourly Weather History & Observations

Time (EDT) Temp. Dew Point Humidity Pressure Visibility Wind Dir Wind Speed Gust Speed Precip Events Conditions
12:15 AM 64.4 °F 62.6 °F 94% 29.93 in 2.5 mi SSW 3.5 mph - N/A   Overcast
12:35 AM 64.4 °F 62.6 °F 94% 29.93 in 2.5 mi South 4.6 mph - N/A   Overcast
12:55 AM 64.4 °F 62.6 °F 94% 29.93 in 2.5 mi SSW 4.6 mph - N/A   Overcast
1:15 AM 64.4 °F 62.6 °F 94% 29.92 in 2.5 mi SSW 4.6 mph - N/A   Overcast
1:35 AM 64.4 °F 62.6 °F 94% 29.92 in 2.5 mi SW 5.8 mph - N/A   Overcast
1:55 AM 64.4 °F 62.6 °F 94% 29.92 in 1.5 mi South 4.6 mph - N/A   Overcast
2:15 AM 64.4 °F 62.6 °F 94% 29.90 in 2.0 mi South 6.9 mph - N/A   Overcast
2:35 AM 64.4 °F 62.6 °F 94% 29.90 in 2.5 mi SSW 8.1 mph - N/A   Overcast
2:55 AM 64.4 °F 62.6 °F 94% 29.90 in 2.0 mi South 6.9 mph - N/A   Overcast
3:15 AM 64.4 °F 62.6 °F 94% 29.90 in 2.0 mi SSW 5.8 mph - N/A   Overcast
3:35 AM 64.4 °F 62.6 °F 94% 29.90 in 1.8 mi SSE 6.9 mph - N/A   Overcast
3:55 AM 64.4 °F 60.8 °F 88% 29.90 in 1.0 mi South 5.8 mph - N/A   Overcast
4:15 AM 64.4 °F 60.8 °F 88% 29.90 in 1.0 mi South 6.9 mph - N/A   Overcast
4:35 AM 64.4 °F 60.8 °F 88% 29.91 in 0.5 mi SSW 6.9 mph - N/A   Overcast
4:55 AM 62.6 °F 60.8 °F 94% 29.90 in 0.2 mi SSW 5.8 mph - N/A   Overcast
5:15 AM 64.4 °F 60.8 °F 88% 29.90 in 0.5 mi South 6.9 mph - N/A   Overcast
5:35 AM 64.4 °F 60.8 °F 88% 29.91 in 0.5 mi South 8.1 mph - N/A   Overcast
5:45 AM 64.4 °F 60.8 °F 88% 29.91 in 0.5 mi South 8.1 mph - N/A Fog Fog
6:45 AM 64.4 °F 62.6 °F 94% 29.92 in 1.0 mi SSW 4.6 mph - N/A Rain Light Rain
7:25 AM 64.4 °F 62.6 °F 94% 29.93 in 0.5 mi SW 5.8 mph - N/A Fog Fog
7:45 AM 64.4 °F 62.6 °F 94% 29.94 in 0.5 mi SSW 8.1 mph - N/A Fog Fog
8:45 AM 66.2 °F 62.6 °F 88% 29.93 in 1.0 mi SSW 4.6 mph - N/A   Overcast
9:15 AM 66.2 °F 64.4 °F 94% 29.94 in 1.5 mi SW 6.9 mph - N/A   Overcast
9:45 AM 66.2 °F 64.4 °F 94% 29.93 in 2.0 mi SSW 6.9 mph - N/A   Overcast
10:10 AM 66.2 °F 64.4 °F 94% 29.94 in 1.0 mi SSW 6.9 mph - N/A   Overcast
10:45 AM 66.2 °F 64.4 °F 94% 29.94 in 2.0 mi SSW 6.9 mph - N/A   Overcast
12:55 PM 69.8 °F 64.4 °F 83% 29.91 in 3.0 mi South 9.2 mph 17.3 mph N/A   Overcast
1:45 PM 69.8 °F 64.4 °F 83% 29.91 in 7.0 mi SSW 8.1 mph 17.3 mph N/A   Overcast
2:55 PM 66.2 °F 62.6 °F 88% 29.90 in 7.0 mi SW 6.9 mph 19.6 mph N/A Rain , Thunderstorm Light Thunderstorms and Rain
3:45 PM 66.2 °F 62.6 °F 88% 29.91 in 2.0 mi West 8.1 mph - N/A Rain , Thunderstorm Thunderstorms and Rain
4:45 PM 64.4 °F 62.6 °F 94% 29.89 in 2.0 mi SSW 11.5 mph - N/A Rain , Thunderstorm Thunderstorms and Rain
5:45 PM 64.4 °F 62.6 °F 94% 29.88 in 2.0 mi SSW 11.5 mph 17.3 mph N/A Rain , Thunderstorm Thunderstorms and Rain
6:45 PM 64.4 °F 62.6 °F 94% 29.88 in 2.0 mi SSW 8.1 mph - N/A Rain Light Rain
7:15 PM 64.4 °F 62.6 °F 94% 29.87 in 2.0 mi SSW 11.5 mph - N/A Rain Light Rain
7:45 PM 64.4 °F 62.6 °F 94% 29.87 in 2.0 mi SSW 9.2 mph 17.3 mph N/A Rain , Thunderstorm Thunderstorms and Rain
9:15 PM 64.4 °F 62.6 °F 94% 29.86 in 7.0 mi South 10.4 mph 18.4 mph N/A   Overcast
9:35 PM 64.4 °F 60.8 °F 88% 29.86 in 5.0 mi South 11.5 mph 16.1 mph N/A   Overcast
9:55 PM 64.4 °F 60.8 °F 88% 29.85 in 10.0 mi South 11.5 mph 19.6 mph N/A   Overcast
10:15 PM 64.4 °F 60.8 °F 88% 29.85 in 10.0 mi South 12.7 mph 24.2 mph N/A   Overcast
10:35 PM - - N/A% 29.84 in 10.0 mi SSW 11.5 mph 19.6 mph N/A   Overcast
10:55 PM 64.4 °F 60.8 °F 88% 29.84 in 10.0 mi SSW 10.4 mph 20.7 mph 0.01 in   Overcast
11:15 PM 64.4 °F 60.8 °F 88% 29.83 in 3.0 mi South 13.8 mph 20.7 mph N/A   Overcast
11:35 PM 62.6 °F 60.8 °F 94% 29.82 in 5.0 mi South 10.4 mph - N/A   Overcast
11:55 PM 62.6 °F 60.8 °F 94% 29.81 in 5.0 mi South 11.5 mph 17.3 mph N/A   Overcast